Hourly Data Report for October 07, 2014

All times are specified in Local Standard Time (LST). Add 1 hour to adjust for Daylight Saving Time where and when it is observed.

MONCTON INTL A
NEW BRUNSWICK

46°06'44.000" N
64°40'43.000" W
70.70 m
8103201
71705
YQM

Download Data

Hourly Data (October 2014)
Hourly Data Report for October 7, 2014
Temp Definition
°C
Dew Point Temp Definition
°C
Rel Hum Definition
%
Wind Dir Definition
10's deg

Wind Spd Definition
km/h
Visibility Definition
km
Stn Press Definition
kPa
Hmdx Definition


Wind Chill Definition


Weather Definition


TIME
00:00 Legend Double Dagger 5.9 4.4 90 20 11 24.1 101.59     LegendNANA
01:00 Legend Double Dagger 7.9 5.0 82 24 4 24.1 101.62     LegendNANA
02:00 Legend Double Dagger 3.4 2.2 92 12 6 24.1 101.60     Mainly Clear
03:00 Legend Double Dagger 3.8 2.5 91 16 4 24.1 101.63     LegendNANA
04:00 Legend Double Dagger 3.6 2.6 93 21 7 24.1 101.66     LegendNANA
05:00 Legend Double Dagger 5.7 4.5 92 16 11 24.1 101.65     Mainly Clear
06:00 Legend Double Dagger 3.5 2.8 95 23 5 1.0 101.70     Fog
07:00 Legend Double Dagger 3.2 2.6 96 20 5 24.1 101.72     LegendNANA
08:00 Legend Double Dagger 6.4 5.8 96 16 7 24.1 101.75     Mainly Clear
09:00 Legend Double Dagger 10.0 7.1 82 17 6 24.1 101.77     LegendNANA
10:00 Legend Double Dagger 14.4 6.6 59 17 16 24.1 101.74     LegendNANA
11:00 Legend Double Dagger 15.9 6.1 52 17 16 24.1 101.71     Mostly Cloudy
12:00 Legend Double Dagger 16.9 6.2 49 17 15 24.1 101.61     LegendNANA
13:00 Legend Double Dagger 17.4 7.0 50 15 14 24.1 101.45     LegendNANA
14:00 Legend Double Dagger 17.4 5.1 44 16 24 24.1 101.44     Mainly Clear
15:00 Legend Double Dagger 17.3 5.4 45 14 22 24.1 101.41     LegendNANA
16:00 Legend Double Dagger 17.1 6.4 49 16 21 24.1 101.39     LegendNANA
17:00 Legend Double Dagger 15.3 7.9 61 15 13 24.1 101.36     Mainly Clear
18:00 Legend Double Dagger 13.4 8.1 70 16 8 24.1 101.38     LegendNANA
19:00 Legend Double Dagger 12.1 8.2 77 14 10 24.1 101.31     LegendNANA
20:00 Legend Double Dagger 11.8 8.9 82 15 14 24.1 101.31     Mainly Clear
21:00 Legend Double Dagger 12.7 10.4 86 17 22 24.1 101.29     LegendNANA
22:00 Legend Double Dagger 12.6 10.7 88 17 17 24.1 101.28     LegendNANA
23:00 Legend Double Dagger 12.4 10.7 89 16 16 24.1 101.28     Mostly Cloudy

Notes on Data Quality.

Legend

  • E = Estimated
  • M = Missing
  • NA = Not Available
  • ‡ = Partner data that is not subject to review by the National Climate Archives
Date modified: